User: anonymous   Login
Location: Mentone
(34.5413°N, 85.5351°W)
Time: 13:55:46
(UTC-06:00)
Language:

Cosmos 2150 Rocket - Orbit

View from above orbital plane
View from above orbital plane
View from above satellite
View from above satellite

Ground track
Ground track

The orbit data is extracted from the following two-line orbital elements,

1 21419U 91041B   14327.13907801  .00000200  00000-0  81001-4 0  6687
2 21419 074.0401 213.1853 0041155 007.3224 100.3251 14.33611043226178
Epoch (UTC): 23 November 2014 03:20:16
Eccentricity: 0.0041155
inclination: 74.0401°
perigee height: 750 km
apogee height: 809 km
right ascension of ascending node: 213.1853°
argument of perigee: 7.3224°
revolutions per day: 14.33611043
mean anomaly at epoch: 100.3251°
orbit number at epoch: 22617

The dashed part of the orbit path shows where the satellite is in the earth's shadow,  

DLR